Year,Month,Day,Hour,Minute,Value (Times are PST for temperature in C)
2019,10,26,00,00,8.90
2019,10,26,00,01,8.80
2019,10,26,00,02,8.70
2019,10,26,00,03,8.60
2019,10,26,00,04,8.50
2019,10,26,00,05,8.50
2019,10,26,00,06,8.40
2019,10,26,00,07,8.40
2019,10,26,00,08,8.40
2019,10,26,00,09,8.40
2019,10,26,00,10,8.30
2019,10,26,00,11,8.30
2019,10,26,00,12,8.30
2019,10,26,00,13,8.20
2019,10,26,00,14,8.20
2019,10,26,00,15,8.10
2019,10,26,00,16,8.10
2019,10,26,00,17,8.00
2019,10,26,00,18,8.00
2019,10,26,00,19,7.90
2019,10,26,00,20,7.90
2019,10,26,00,21,7.80
2019,10,26,00,22,7.80
2019,10,26,00,23,7.80
2019,10,26,00,24,7.70
2019,10,26,00,25,7.70
2019,10,26,00,26,7.70
2019,10,26,00,27,7.70
2019,10,26,00,28,7.60
2019,10,26,00,29,7.60
2019,10,26,00,30,7.60
2019,10,26,00,31,7.60
2019,10,26,00,32,7.60
2019,10,26,00,33,7.60
2019,10,26,00,34,7.70
2019,10,26,00,35,7.80
2019,10,26,00,36,7.80
2019,10,26,00,37,7.80
2019,10,26,00,38,7.80
2019,10,26,00,39,7.90
2019,10,26,00,40,7.90
2019,10,26,00,41,8.00
2019,10,26,00,42,8.00
2019,10,26,00,43,8.10
2019,10,26,00,44,8.10
2019,10,26,00,45,8.10
2019,10,26,00,46,8.20
2019,10,26,00,47,8.10
2019,10,26,00,48,8.10
2019,10,26,00,49,8.10
2019,10,26,00,50,8.10
2019,10,26,00,51,8.10
2019,10,26,00,52,8.00
2019,10,26,00,53,8.00
2019,10,26,00,54,8.00
2019,10,26,00,55,7.90
2019,10,26,00,56,7.80
2019,10,26,00,57,7.80
2019,10,26,00,58,7.80
2019,10,26,00,59,7.90
2019,10,26,01,00,7.90
2019,10,26,01,01,7.90
2019,10,26,01,02,7.90
2019,10,26,01,03,7.90
2019,10,26,01,04,7.80
2019,10,26,01,05,7.80
2019,10,26,01,06,7.70
2019,10,26,01,07,7.70
2019,10,26,01,08,7.60
2019,10,26,01,09,7.60
2019,10,26,01,10,7.60
2019,10,26,01,11,7.60
2019,10,26,01,12,7.60
2019,10,26,01,13,7.60
2019,10,26,01,14,7.70
2019,10,26,01,15,7.70
2019,10,26,01,16,7.80
2019,10,26,01,17,7.80
2019,10,26,01,18,7.80
2019,10,26,01,19,7.80
2019,10,26,01,20,7.80
2019,10,26,01,21,7.70
2019,10,26,01,22,7.70
2019,10,26,01,23,7.60
2019,10,26,01,24,7.50
2019,10,26,01,25,7.50
2019,10,26,01,26,7.40
2019,10,26,01,27,7.40
2019,10,26,01,28,7.30
2019,10,26,01,29,7.30
2019,10,26,01,30,7.30
2019,10,26,01,31,7.20
2019,10,26,01,32,7.20
2019,10,26,01,33,7.20
2019,10,26,01,34,7.10
2019,10,26,01,35,7.00
2019,10,26,01,36,6.90
2019,10,26,01,37,6.90
2019,10,26,01,38,6.80
2019,10,26,01,39,6.80
2019,10,26,01,40,6.70
2019,10,26,01,41,6.70
2019,10,26,01,42,6.70
2019,10,26,01,43,6.70
2019,10,26,01,44,6.70
2019,10,26,01,45,6.60
2019,10,26,01,46,6.60
2019,10,26,01,47,6.60
2019,10,26,01,48,6.60
2019,10,26,01,49,6.70
2019,10,26,01,50,6.70
2019,10,26,01,51,6.70
2019,10,26,01,52,6.70
2019,10,26,01,53,6.70
2019,10,26,01,54,6.80
2019,10,26,01,55,6.80
2019,10,26,01,56,6.80
2019,10,26,01,57,6.80
2019,10,26,01,58,6.80
2019,10,26,01,59,6.80
2019,10,26,02,00,6.80
2019,10,26,02,01,6.80
2019,10,26,02,02,6.80
2019,10,26,02,03,6.80
2019,10,26,02,04,6.80
2019,10,26,02,05,6.80
2019,10,26,02,06,6.70
2019,10,26,02,07,6.70
2019,10,26,02,08,6.70
2019,10,26,02,09,6.70
2019,10,26,02,10,6.70
2019,10,26,02,11,6.70
2019,10,26,02,12,6.60
2019,10,26,02,13,6.60
2019,10,26,02,14,6.60
2019,10,26,02,15,6.50
2019,10,26,02,16,6.50
2019,10,26,02,17,6.40
2019,10,26,02,18,6.40
2019,10,26,02,19,6.40
2019,10,26,02,20,6.40
2019,10,26,02,21,6.30
2019,10,26,02,22,6.30
2019,10,26,02,23,6.30
2019,10,26,02,24,6.30
2019,10,26,02,25,6.30
2019,10,26,02,26,6.40
2019,10,26,02,27,6.50
2019,10,26,02,28,6.60
2019,10,26,02,29,6.60
2019,10,26,02,30,6.60
2019,10,26,02,31,6.60
2019,10,26,02,32,6.60
2019,10,26,02,33,6.60
2019,10,26,02,34,6.60
2019,10,26,02,35,6.70
2019,10,26,02,36,6.70
2019,10,26,02,37,6.80
2019,10,26,02,38,6.90
2019,10,26,02,39,7.00
2019,10,26,02,40,7.00
2019,10,26,02,41,7.10
2019,10,26,02,42,7.10
2019,10,26,02,43,7.10
2019,10,26,02,44,7.10
2019,10,26,02,45,7.10
2019,10,26,02,46,7.00
2019,10,26,02,47,7.00
2019,10,26,02,48,7.00
2019,10,26,02,49,7.00
2019,10,26,02,50,7.00
2019,10,26,02,51,7.10
2019,10,26,02,52,7.10
2019,10,26,02,53,7.20
2019,10,26,02,54,7.20
2019,10,26,02,55,7.30
2019,10,26,02,56,7.40
2019,10,26,02,57,7.40
2019,10,26,02,58,7.50
2019,10,26,02,59,7.50
2019,10,26,03,00,7.60
2019,10,26,03,01,7.60
2019,10,26,03,02,7.60
2019,10,26,03,03,7.70
2019,10,26,03,04,7.70
2019,10,26,03,05,7.70
2019,10,26,03,06,7.70
2019,10,26,03,07,7.80
2019,10,26,03,08,7.90
2019,10,26,03,09,8.00
2019,10,26,03,10,8.10
2019,10,26,03,11,8.20
2019,10,26,03,12,8.30
2019,10,26,03,13,8.60
2019,10,26,03,14,8.80
2019,10,26,03,15,8.90
2019,10,26,03,16,9.00
2019,10,26,03,17,9.10
2019,10,26,03,18,9.20
2019,10,26,03,19,9.20
2019,10,26,03,20,9.10
2019,10,26,03,21,9.10
2019,10,26,03,22,9.00
2019,10,26,03,23,8.90
2019,10,26,03,24,8.90
2019,10,26,03,25,8.80
2019,10,26,03,26,8.70
2019,10,26,03,27,8.60
2019,10,26,03,28,8.60
2019,10,26,03,29,8.50
2019,10,26,03,30,8.50
2019,10,26,03,31,8.40
2019,10,26,03,32,8.40
2019,10,26,03,33,8.30
2019,10,26,03,34,8.30
2019,10,26,03,35,8.20
2019,10,26,03,36,8.20
2019,10,26,03,37,8.10
2019,10,26,03,38,8.00
2019,10,26,03,39,8.00
2019,10,26,03,40,7.90
2019,10,26,03,41,7.80
2019,10,26,03,42,7.70
2019,10,26,03,43,7.60
2019,10,26,03,44,7.60
2019,10,26,03,45,7.60
2019,10,26,03,46,7.50
2019,10,26,03,47,7.40
2019,10,26,03,48,7.40
2019,10,26,03,49,7.40
2019,10,26,03,50,7.30
2019,10,26,03,51,7.30
2019,10,26,03,52,7.20
2019,10,26,03,53,7.20
2019,10,26,03,54,7.10
2019,10,26,03,55,7.00
2019,10,26,03,56,7.00
2019,10,26,03,57,6.90
2019,10,26,03,58,6.90
2019,10,26,03,59,6.90
2019,10,26,04,00,6.90
2019,10,26,04,01,6.90
2019,10,26,04,02,6.90
2019,10,26,04,03,6.80
2019,10,26,04,04,6.80
2019,10,26,04,05,6.70
2019,10,26,04,06,6.70
2019,10,26,04,07,6.70
2019,10,26,04,08,6.60
2019,10,26,04,09,6.60
2019,10,26,04,10,6.60
2019,10,26,04,11,6.60
2019,10,26,04,12,6.60
2019,10,26,04,13,6.60
2019,10,26,04,14,6.60
2019,10,26,04,15,6.60
2019,10,26,04,16,6.70
2019,10,26,04,17,6.70
2019,10,26,04,18,6.70
2019,10,26,04,19,6.80
2019,10,26,04,20,6.80
2019,10,26,04,21,6.70
2019,10,26,04,22,6.70
2019,10,26,04,23,6.70
2019,10,26,04,24,6.70
2019,10,26,04,25,6.60
2019,10,26,04,26,6.50
2019,10,26,04,27,6.50
2019,10,26,04,28,6.40
2019,10,26,04,29,6.30
2019,10,26,04,30,6.30
2019,10,26,04,31,6.30
2019,10,26,04,32,6.30
2019,10,26,04,33,6.30
2019,10,26,04,34,6.30
2019,10,26,04,35,6.30
2019,10,26,04,36,6.30
2019,10,26,04,37,6.30
2019,10,26,04,38,6.20
2019,10,26,04,39,6.20
2019,10,26,04,40,6.20
2019,10,26,04,41,6.20
2019,10,26,04,42,6.10
2019,10,26,04,43,6.10
2019,10,26,04,44,6.10
2019,10,26,04,45,6.10
2019,10,26,04,46,6.10
2019,10,26,04,47,6.00
2019,10,26,04,48,6.00
2019,10,26,04,49,6.00
2019,10,26,04,50,6.00
2019,10,26,04,51,6.00
2019,10,26,04,52,6.00
2019,10,26,04,53,5.90
2019,10,26,04,54,5.90
2019,10,26,04,55,5.90
2019,10,26,04,56,5.90
2019,10,26,04,57,5.80
2019,10,26,04,58,5.80
2019,10,26,04,59,5.80
2019,10,26,05,00,5.80
2019,10,26,05,01,5.80
2019,10,26,05,02,5.80
2019,10,26,05,03,5.80
2019,10,26,05,04,5.80
2019,10,26,05,05,5.80
2019,10,26,05,06,5.80
2019,10,26,05,07,5.80
2019,10,26,05,08,5.80
2019,10,26,05,09,5.80
2019,10,26,05,10,5.80
2019,10,26,05,11,5.80
2019,10,26,05,12,5.80
2019,10,26,05,13,5.80
2019,10,26,05,14,5.80
2019,10,26,05,15,5.80
2019,10,26,05,16,5.80
2019,10,26,05,17,5.80
2019,10,26,05,18,5.90
2019,10,26,05,19,5.90
2019,10,26,05,20,6.00
2019,10,26,05,21,6.00
2019,10,26,05,22,6.10
2019,10,26,05,23,6.10
2019,10,26,05,24,6.10
2019,10,26,05,25,6.10
2019,10,26,05,26,6.10
2019,10,26,05,27,6.00
2019,10,26,05,28,5.90
2019,10,26,05,29,5.80
2019,10,26,05,30,5.80
2019,10,26,05,31,5.70
2019,10,26,05,32,5.70
2019,10,26,05,33,5.60
2019,10,26,05,34,5.60
2019,10,26,05,35,5.60
2019,10,26,05,36,5.50
2019,10,26,05,37,5.50
2019,10,26,05,38,5.50
2019,10,26,05,39,5.50
2019,10,26,05,40,5.50
2019,10,26,05,41,5.40
2019,10,26,05,42,5.40
2019,10,26,05,43,5.40
2019,10,26,05,44,5.40
2019,10,26,05,45,5.50
2019,10,26,05,46,5.50
2019,10,26,05,47,5.50
2019,10,26,05,48,5.50
2019,10,26,05,49,5.50
2019,10,26,05,50,5.60
2019,10,26,05,51,5.50
2019,10,26,05,52,5.50
2019,10,26,05,53,5.50
2019,10,26,05,54,5.50
2019,10,26,05,55,5.50
2019,10,26,05,56,5.40
2019,10,26,05,57,5.40
2019,10,26,05,58,5.30
2019,10,26,05,59,5.30
2019,10,26,06,00,5.30
2019,10,26,06,01,5.30
2019,10,26,06,02,5.30
2019,10,26,06,03,5.30
2019,10,26,06,04,5.30
2019,10,26,06,05,5.30
2019,10,26,06,06,5.30
2019,10,26,06,07,5.30
2019,10,26,06,08,5.30
2019,10,26,06,09,5.30
2019,10,26,06,10,5.30
2019,10,26,06,11,5.30
2019,10,26,06,12,5.30
2019,10,26,06,13,5.30
2019,10,26,06,14,5.30
2019,10,26,06,15,5.30
2019,10,26,06,16,5.30
2019,10,26,06,17,5.30
2019,10,26,06,18,5.30
2019,10,26,06,19,5.30
2019,10,26,06,20,5.30
2019,10,26,06,21,5.30
2019,10,26,06,22,5.30
2019,10,26,06,23,5.30
2019,10,26,06,24,5.30
2019,10,26,06,25,5.30
2019,10,26,06,26,5.30
2019,10,26,06,27,5.20
2019,10,26,06,28,5.20
2019,10,26,06,29,5.20
2019,10,26,06,30,5.20
2019,10,26,06,31,5.20
2019,10,26,06,32,5.20
2019,10,26,06,33,5.20
2019,10,26,06,34,5.20
2019,10,26,06,35,5.20
2019,10,26,06,36,5.20
2019,10,26,06,37,5.20
2019,10,26,06,38,5.20
2019,10,26,06,39,5.20
2019,10,26,06,40,5.20
2019,10,26,06,41,5.30
2019,10,26,06,42,5.30
2019,10,26,06,43,5.30
2019,10,26,06,44,5.30
2019,10,26,06,45,5.30
2019,10,26,06,46,5.30
2019,10,26,06,47,5.30
2019,10,26,06,48,5.20
2019,10,26,06,49,5.20
2019,10,26,06,50,5.20
2019,10,26,06,51,5.20
2019,10,26,06,52,5.20
2019,10,26,06,53,5.10
2019,10,26,06,54,5.10
2019,10,26,06,55,5.10
2019,10,26,06,56,5.10
2019,10,26,06,57,5.10
2019,10,26,06,58,5.10
2019,10,26,06,59,5.10
2019,10,26,07,00,5.10
2019,10,26,07,01,5.10
2019,10,26,07,02,5.10
2019,10,26,07,03,5.10
2019,10,26,07,04,5.10
2019,10,26,07,05,5.10
2019,10,26,07,06,5.10
2019,10,26,07,07,5.00
2019,10,26,07,08,5.00
2019,10,26,07,09,5.00
2019,10,26,07,10,5.00
2019,10,26,07,11,5.00
2019,10,26,07,12,5.00
2019,10,26,07,13,5.00
2019,10,26,07,14,5.00
2019,10,26,07,15,5.00
2019,10,26,07,16,5.00
2019,10,26,07,17,5.00
2019,10,26,07,18,5.10
2019,10,26,07,19,5.10
2019,10,26,07,20,5.10
2019,10,26,07,21,5.10
2019,10,26,07,22,5.20
2019,10,26,07,23,5.20
2019,10,26,07,24,5.20
2019,10,26,07,25,5.30
2019,10,26,07,26,5.30
2019,10,26,07,27,5.20
2019,10,26,07,28,5.20
2019,10,26,07,29,5.10
2019,10,26,07,30,5.10
2019,10,26,07,31,5.10
2019,10,26,07,32,5.10
2019,10,26,07,33,5.10
2019,10,26,07,34,5.10
2019,10,26,07,35,5.10
2019,10,26,07,36,5.10
2019,10,26,07,37,5.10
2019,10,26,07,38,5.10
2019,10,26,07,39,5.10
2019,10,26,07,40,5.10
2019,10,26,07,41,5.20
2019,10,26,07,42,5.20
2019,10,26,07,43,5.20
2019,10,26,07,44,5.20
2019,10,26,07,45,5.20
2019,10,26,07,46,5.10
2019,10,26,07,47,5.10
2019,10,26,07,48,5.10
2019,10,26,07,49,5.20
2019,10,26,07,50,5.20
2019,10,26,07,51,5.20
2019,10,26,07,52,5.20
2019,10,26,07,53,5.20
2019,10,26,07,54,5.30
2019,10,26,07,55,5.30
2019,10,26,07,56,5.30
2019,10,26,07,57,5.30
2019,10,26,07,58,5.30
2019,10,26,07,59,5.30
2019,10,26,08,00,5.30
2019,10,26,08,01,5.40
2019,10,26,08,02,5.40
2019,10,26,08,03,5.50
2019,10,26,08,04,5.50
2019,10,26,08,05,5.50
2019,10,26,08,06,5.50
2019,10,26,08,07,5.50
2019,10,26,08,08,5.50
2019,10,26,08,09,5.50
2019,10,26,08,10,5.50
2019,10,26,08,11,5.60
2019,10,26,08,12,5.60
2019,10,26,08,13,5.60
2019,10,26,08,14,5.70
2019,10,26,08,15,5.70
2019,10,26,08,16,5.80
2019,10,26,08,17,5.80
2019,10,26,08,18,5.80
2019,10,26,08,19,5.80
2019,10,26,08,20,5.80
2019,10,26,08,21,5.80
2019,10,26,08,22,5.80
2019,10,26,08,23,5.80
2019,10,26,08,24,5.80
2019,10,26,08,25,5.90
2019,10,26,08,26,6.00
2019,10,26,08,27,6.10
2019,10,26,08,28,6.20
2019,10,26,08,29,6.20
2019,10,26,08,30,6.30
2019,10,26,08,31,6.30
2019,10,26,08,32,6.40
2019,10,26,08,33,6.40
2019,10,26,08,34,6.40
2019,10,26,08,35,6.40
2019,10,26,08,36,6.40
2019,10,26,08,37,6.40
2019,10,26,08,38,6.40
2019,10,26,08,39,6.40
2019,10,26,08,40,6.40
2019,10,26,08,41,6.50
2019,10,26,08,42,6.50
2019,10,26,08,43,6.60
2019,10,26,08,44,6.60
2019,10,26,08,45,6.50
2019,10,26,08,46,6.50
2019,10,26,08,47,6.40
2019,10,26,08,48,6.40
2019,10,26,08,49,6.40
2019,10,26,08,50,6.30
2019,10,26,08,51,6.30
2019,10,26,08,52,6.30
2019,10,26,08,53,6.20
2019,10,26,08,54,6.20
2019,10,26,08,55,6.20
2019,10,26,08,56,6.20
2019,10,26,08,57,6.10
2019,10,26,08,58,6.10
2019,10,26,08,59,6.10
2019,10,26,09,00,6.10
2019,10,26,09,01,6.00
2019,10,26,09,02,6.00
2019,10,26,09,03,5.90
2019,10,26,09,04,5.90
2019,10,26,09,05,5.90
2019,10,26,09,06,5.90
2019,10,26,09,07,5.90
2019,10,26,09,08,5.90
2019,10,26,09,09,5.90
2019,10,26,09,10,5.90
2019,10,26,09,11,5.90
2019,10,26,09,12,5.90
2019,10,26,09,13,5.90
2019,10,26,09,14,5.90
2019,10,26,09,15,5.90
2019,10,26,09,16,5.90
2019,10,26,09,17,5.90
2019,10,26,09,18,6.00
2019,10,26,09,19,6.00
2019,10,26,09,20,6.10
2019,10,26,09,21,6.10
2019,10,26,09,22,6.10
2019,10,26,09,23,6.10
2019,10,26,09,24,6.20
2019,10,26,09,25,6.20
2019,10,26,09,26,6.20
2019,10,26,09,27,6.30
2019,10,26,09,28,6.30
2019,10,26,09,29,6.30
2019,10,26,09,30,6.40
2019,10,26,09,31,6.40
2019,10,26,09,32,6.50
2019,10,26,09,33,6.50
2019,10,26,09,34,6.60
2019,10,26,09,35,6.60
2019,10,26,09,36,6.70
2019,10,26,09,37,6.70
2019,10,26,09,38,6.80
2019,10,26,09,39,6.80
2019,10,26,09,40,6.90
2019,10,26,09,41,6.90
2019,10,26,09,42,7.00
2019,10,26,09,43,7.10
2019,10,26,09,44,7.10
2019,10,26,09,45,7.20
2019,10,26,09,46,7.40
2019,10,26,09,47,7.50
2019,10,26,09,48,7.60
2019,10,26,09,49,7.70
2019,10,26,09,50,7.70
2019,10,26,09,51,7.80
2019,10,26,09,52,7.80
2019,10,26,09,53,7.90
2019,10,26,09,54,8.00
2019,10,26,09,55,8.10
2019,10,26,09,56,8.20
2019,10,26,09,57,8.30
2019,10,26,09,58,8.40
2019,10,26,09,59,8.50
2019,10,26,10,00,8.60
2019,10,26,10,01,8.70
2019,10,26,10,02,8.70
2019,10,26,10,03,8.80
2019,10,26,10,04,8.80
2019,10,26,10,05,8.90
2019,10,26,10,06,8.90
2019,10,26,10,07,9.00
2019,10,26,10,08,9.10
2019,10,26,10,09,9.10
2019,10,26,10,10,9.10
2019,10,26,10,11,9.20
2019,10,26,10,12,9.20
2019,10,26,10,13,9.30
2019,10,26,10,14,9.30
2019,10,26,10,15,9.40
2019,10,26,10,16,9.40
2019,10,26,10,17,9.50
2019,10,26,10,18,9.50
2019,10,26,10,19,9.60
2019,10,26,10,20,9.60
2019,10,26,10,21,9.70
2019,10,26,10,22,9.70
2019,10,26,10,23,9.70
2019,10,26,10,24,9.80
2019,10,26,10,25,9.80
2019,10,26,10,26,9.80
2019,10,26,10,27,9.80
2019,10,26,10,28,9.80
2019,10,26,10,29,9.90
2019,10,26,10,30,9.90
2019,10,26,10,31,10.00
2019,10,26,10,32,10.00
2019,10,26,10,33,10.10
2019,10,26,10,34,10.10
2019,10,26,10,35,10.20
2019,10,26,10,36,10.20
2019,10,26,10,37,10.30
2019,10,26,10,38,10.30
2019,10,26,10,39,10.30
2019,10,26,10,40,10.30
2019,10,26,10,41,10.30
2019,10,26,10,42,10.30
2019,10,26,10,43,10.30
2019,10,26,10,44,10.30
2019,10,26,10,45,10.20
2019,10,26,10,46,10.20
2019,10,26,10,47,10.10
2019,10,26,10,48,10.10
2019,10,26,10,49,10.10
2019,10,26,10,50,10.10
2019,10,26,10,51,10.10
2019,10,26,10,52,10.10
2019,10,26,10,53,10.00
2019,10,26,10,54,10.00
2019,10,26,10,55,10.10
2019,10,26,10,56,10.10
2019,10,26,10,57,10.10
2019,10,26,10,58,10.10
2019,10,26,10,59,10.10
2019,10,26,11,00,10.10
2019,10,26,11,01,10.10
2019,10,26,11,02,10.10
2019,10,26,11,03,10.10
2019,10,26,11,04,10.20
2019,10,26,11,05,10.20
2019,10,26,11,06,10.20
2019,10,26,11,07,10.20
2019,10,26,11,08,10.20
2019,10,26,11,09,10.20
2019,10,26,11,10,10.20
2019,10,26,11,11,10.20
2019,10,26,11,12,10.20
2019,10,26,11,13,10.20
2019,10,26,11,14,10.20
2019,10,26,11,15,10.20
2019,10,26,11,16,10.20
2019,10,26,11,17,10.20
2019,10,26,11,18,10.20
2019,10,26,11,19,10.30
2019,10,26,11,20,10.30
2019,10,26,11,21,10.30
2019,10,26,11,22,10.30
2019,10,26,11,23,10.30
2019,10,26,11,24,10.30
2019,10,26,11,25,10.30
2019,10,26,11,26,10.30
2019,10,26,11,27,10.30
2019,10,26,11,28,10.30
2019,10,26,11,29,10.30
2019,10,26,11,30,10.30
2019,10,26,11,31,10.30
2019,10,26,11,32,10.40
2019,10,26,11,33,10.40
2019,10,26,11,34,10.40
2019,10,26,11,35,10.40
2019,10,26,11,36,10.40
2019,10,26,11,37,10.40
2019,10,26,11,38,10.40
2019,10,26,11,39,10.40
2019,10,26,11,40,10.40
2019,10,26,11,41,10.40
2019,10,26,11,42,10.50
2019,10,26,11,43,10.50
2019,10,26,11,44,10.50
2019,10,26,11,45,10.60
2019,10,26,11,46,10.60
2019,10,26,11,47,10.60
2019,10,26,11,48,10.60
2019,10,26,11,49,10.60
2019,10,26,11,50,10.60
2019,10,26,11,51,10.60
2019,10,26,11,52,10.60
2019,10,26,11,53,10.60
2019,10,26,11,54,10.60
2019,10,26,11,55,10.70
2019,10,26,11,56,10.70
2019,10,26,11,57,10.70
2019,10,26,11,58,10.70
2019,10,26,11,59,10.80
2019,10,26,12,00,10.80
2019,10,26,12,01,10.80
2019,10,26,12,02,10.90
2019,10,26,12,03,10.90
2019,10,26,12,04,11.00
2019,10,26,12,05,11.00
2019,10,26,12,06,11.10
2019,10,26,12,07,11.10
2019,10,26,12,08,11.20
2019,10,26,12,09,11.20
2019,10,26,12,10,11.30
2019,10,26,12,11,11.30
2019,10,26,12,12,11.30
2019,10,26,12,13,11.30
2019,10,26,12,14,11.30
2019,10,26,12,15,11.30
2019,10,26,12,16,11.30
2019,10,26,12,17,11.30
2019,10,26,12,18,11.30
2019,10,26,12,19,11.30
2019,10,26,12,20,11.30
2019,10,26,12,21,11.30
2019,10,26,12,22,11.30
2019,10,26,12,23,11.30
2019,10,26,12,24,11.30
2019,10,26,12,25,11.40
2019,10,26,12,26,11.40
2019,10,26,12,27,11.40
2019,10,26,12,28,11.40
2019,10,26,12,29,11.40
2019,10,26,12,30,11.40
2019,10,26,12,31,11.30
2019,10,26,12,32,11.30
2019,10,26,12,33,11.30
2019,10,26,12,34,11.30
2019,10,26,12,35,11.40
2019,10,26,12,36,11.40
2019,10,26,12,37,11.40
2019,10,26,12,38,11.40
2019,10,26,12,39,11.40
2019,10,26,12,40,11.40
2019,10,26,12,41,11.40
2019,10,26,12,42,11.50
2019,10,26,12,43,11.50
2019,10,26,12,44,11.60
2019,10,26,12,45,11.60
2019,10,26,12,46,11.60
2019,10,26,12,47,11.60
2019,10,26,12,48,11.50
2019,10,26,12,49,11.50
2019,10,26,12,50,11.40
2019,10,26,12,51,11.40
2019,10,26,12,52,11.30
2019,10,26,12,53,11.30
2019,10,26,12,54,11.30
2019,10,26,12,55,11.30
2019,10,26,12,56,11.40
2019,10,26,12,57,11.40
2019,10,26,12,58,11.40
2019,10,26,12,59,11.50
2019,10,26,13,00,11.50
2019,10,26,13,01,11.50
2019,10,26,13,02,11.60
2019,10,26,13,03,11.60
2019,10,26,13,04,11.60
2019,10,26,13,05,11.70
2019,10,26,13,06,11.80
2019,10,26,13,07,11.80
2019,10,26,13,08,11.90
2019,10,26,13,09,12.00
2019,10,26,13,10,12.00
2019,10,26,13,11,12.10
2019,10,26,13,12,12.10
2019,10,26,13,13,12.20
2019,10,26,13,14,12.20
2019,10,26,13,15,12.20
2019,10,26,13,16,12.20
2019,10,26,13,17,12.10
2019,10,26,13,18,12.00
2019,10,26,13,19,11.90
2019,10,26,13,20,11.80
2019,10,26,13,21,11.80
2019,10,26,13,22,11.70
2019,10,26,13,23,11.70
2019,10,26,13,24,11.70
2019,10,26,13,25,11.70
2019,10,26,13,26,11.70
2019,10,26,13,27,11.80
2019,10,26,13,28,11.80
2019,10,26,13,29,11.90
2019,10,26,13,30,11.90
2019,10,26,13,31,12.00
2019,10,26,13,32,12.00
2019,10,26,13,33,12.00
2019,10,26,13,34,12.00
2019,10,26,13,35,12.00
2019,10,26,13,36,12.00
2019,10,26,13,37,12.00
2019,10,26,13,38,12.10
2019,10,26,13,39,12.10
2019,10,26,13,40,12.20
2019,10,26,13,41,12.20
2019,10,26,13,42,12.10
2019,10,26,13,43,12.10
2019,10,26,13,44,12.10
2019,10,26,13,45,12.10
2019,10,26,13,46,12.20
2019,10,26,13,47,12.20
2019,10,26,13,48,12.20
2019,10,26,13,49,12.20
2019,10,26,13,50,12.20
2019,10,26,13,51,12.20
2019,10,26,13,52,12.30
2019,10,26,13,53,12.30
2019,10,26,13,54,12.40
2019,10,26,13,55,12.50
2019,10,26,13,56,12.60
2019,10,26,13,57,12.60
2019,10,26,13,58,12.70
2019,10,26,13,59,12.80
2019,10,26,14,00,12.80
2019,10,26,14,01,12.80
2019,10,26,14,02,12.80
2019,10,26,14,03,12.80
2019,10,26,14,04,12.80
2019,10,26,14,05,12.80
2019,10,26,14,06,12.80
2019,10,26,14,07,12.80
2019,10,26,14,08,12.70
2019,10,26,14,09,12.70
2019,10,26,14,10,12.60
2019,10,26,14,11,12.50
2019,10,26,14,12,12.40
2019,10,26,14,13,12.30
2019,10,26,14,14,12.30
2019,10,26,14,15,12.30
2019,10,26,14,16,12.30
2019,10,26,14,17,12.30
2019,10,26,14,18,12.20
2019,10,26,14,19,12.20
2019,10,26,14,20,12.20
2019,10,26,14,21,12.20
2019,10,26,14,22,12.20
2019,10,26,14,23,12.20
2019,10,26,14,24,12.20
2019,10,26,14,25,12.10
2019,10,26,14,26,12.10
2019,10,26,14,27,12.10
2019,10,26,14,28,12.00
2019,10,26,14,29,12.00
2019,10,26,14,30,11.90
2019,10,26,14,31,11.90
2019,10,26,14,32,12.00
2019,10,26,14,33,12.00
2019,10,26,14,34,12.00
2019,10,26,14,35,12.00
2019,10,26,14,36,12.00
2019,10,26,14,37,12.00
2019,10,26,14,38,12.00
2019,10,26,14,39,11.90
2019,10,26,14,40,11.90
2019,10,26,14,41,11.90
2019,10,26,14,42,11.90
2019,10,26,14,43,11.90
2019,10,26,14,44,11.90
2019,10,26,14,45,11.90
2019,10,26,14,46,11.90
2019,10,26,14,47,11.90
2019,10,26,14,48,11.80
2019,10,26,14,49,11.80
2019,10,26,14,50,11.80
2019,10,26,14,51,11.70
2019,10,26,14,52,11.70
2019,10,26,14,53,11.60
2019,10,26,14,54,11.60
2019,10,26,14,55,11.60
2019,10,26,14,56,11.60
2019,10,26,14,57,11.60
2019,10,26,14,58,11.50
2019,10,26,14,59,11.50
2019,10,26,15,00,11.40
2019,10,26,15,01,11.20
2019,10,26,15,02,11.10
2019,10,26,15,03,11.00
2019,10,26,15,04,10.90
2019,10,26,15,05,10.80
2019,10,26,15,06,10.70
2019,10,26,15,07,10.50
2019,10,26,15,08,10.40
2019,10,26,15,09,10.30
2019,10,26,15,10,10.20
2019,10,26,15,11,10.20
2019,10,26,15,12,10.10
2019,10,26,15,13,9.90
2019,10,26,15,14,9.80
2019,10,26,15,15,9.80
2019,10,26,15,16,9.70
2019,10,26,15,17,9.60
2019,10,26,15,18,9.50
2019,10,26,15,19,9.50
2019,10,26,15,20,9.40
2019,10,26,15,21,9.30
2019,10,26,15,22,9.20
2019,10,26,15,23,9.20
2019,10,26,15,24,9.10
2019,10,26,15,25,9.00
2019,10,26,15,26,9.00
2019,10,26,15,27,8.90
2019,10,26,15,28,8.80
2019,10,26,15,29,8.80
2019,10,26,15,30,8.70
2019,10,26,15,31,8.70
2019,10,26,15,32,8.70
2019,10,26,15,33,8.70
2019,10,26,15,34,8.60
2019,10,26,15,35,8.60
2019,10,26,15,36,8.60
2019,10,26,15,37,8.50
2019,10,26,15,38,8.50
2019,10,26,15,39,8.50
2019,10,26,15,40,8.40
2019,10,26,15,41,8.40
2019,10,26,15,42,8.40
2019,10,26,15,43,8.40
2019,10,26,15,44,8.40
2019,10,26,15,45,8.40
2019,10,26,15,46,8.30
2019,10,26,15,47,8.30
2019,10,26,15,48,8.30
2019,10,26,15,49,8.30
2019,10,26,15,50,8.30
2019,10,26,15,51,8.30
2019,10,26,15,52,8.30
2019,10,26,15,53,8.20
2019,10,26,15,54,8.20
2019,10,26,15,55,8.20
2019,10,26,15,56,8.20
2019,10,26,15,57,8.20
2019,10,26,15,58,8.20
2019,10,26,15,59,8.10
2019,10,26,16,00,8.10
2019,10,26,16,01,8.10
2019,10,26,16,02,8.10
2019,10,26,16,03,8.10
2019,10,26,16,04,8.10
2019,10,26,16,05,8.00
2019,10,26,16,06,8.00
2019,10,26,16,07,8.00
2019,10,26,16,08,8.00
2019,10,26,16,09,7.90
2019,10,26,16,10,7.90
2019,10,26,16,11,7.90
2019,10,26,16,12,7.90
2019,10,26,16,13,7.90
2019,10,26,16,14,7.90
2019,10,26,16,15,7.90
2019,10,26,16,16,7.90
2019,10,26,16,17,7.80
2019,10,26,16,18,7.80
2019,10,26,16,19,7.80
2019,10,26,16,20,7.80
2019,10,26,16,21,7.80
2019,10,26,16,22,7.80
2019,10,26,16,23,7.70
2019,10,26,16,24,7.70
2019,10,26,16,25,7.70
2019,10,26,16,26,7.70
2019,10,26,16,27,7.70
2019,10,26,16,28,7.70
2019,10,26,16,29,7.70
2019,10,26,16,30,7.60
2019,10,26,16,31,7.60
2019,10,26,16,32,7.60
2019,10,26,16,33,7.60
2019,10,26,16,34,7.60
2019,10,26,16,35,7.60
2019,10,26,16,36,7.60
2019,10,26,16,37,7.60
2019,10,26,16,38,7.60
2019,10,26,16,39,7.60
2019,10,26,16,40,7.60
2019,10,26,16,41,7.60
2019,10,26,16,42,7.60
2019,10,26,16,43,7.60
2019,10,26,16,44,7.60
2019,10,26,16,45,7.60
2019,10,26,16,46,7.60
2019,10,26,16,47,7.60
2019,10,26,16,48,7.60
2019,10,26,16,49,7.60
2019,10,26,16,50,7.60
2019,10,26,16,51,7.50
2019,10,26,16,52,7.50
2019,10,26,16,53,7.50
2019,10,26,16,54,7.50
2019,10,26,16,55,7.40
2019,10,26,16,56,7.40
2019,10,26,16,57,7.40
2019,10,26,16,58,7.40
2019,10,26,16,59,7.40
2019,10,26,17,00,7.30
2019,10,26,17,01,7.30
2019,10,26,17,02,7.30
2019,10,26,17,03,7.30
2019,10,26,17,04,7.30
2019,10,26,17,05,7.30
2019,10,26,17,06,7.30
2019,10,26,17,07,7.30
2019,10,26,17,08,7.30
2019,10,26,17,09,7.30
2019,10,26,17,10,7.30
2019,10,26,17,11,7.30
2019,10,26,17,12,7.30
2019,10,26,17,13,7.30
2019,10,26,17,14,7.30
2019,10,26,17,15,7.30
2019,10,26,17,16,7.30
2019,10,26,17,17,7.20
2019,10,26,17,18,7.20
2019,10,26,17,19,7.20
2019,10,26,17,20,7.30
2019,10,26,17,21,7.30
2019,10,26,17,22,7.30
2019,10,26,17,23,7.30
2019,10,26,17,24,7.30
2019,10,26,17,25,7.30
2019,10,26,17,26,7.30
2019,10,26,17,27,7.30
2019,10,26,17,28,7.30
2019,10,26,17,29,7.30
2019,10,26,17,30,7.30
2019,10,26,17,31,7.30
2019,10,26,17,32,7.30
2019,10,26,17,33,7.30
2019,10,26,17,34,7.30
2019,10,26,17,35,7.30
2019,10,26,17,36,7.30
2019,10,26,17,37,7.20
2019,10,26,17,38,7.20
2019,10,26,17,39,7.20
2019,10,26,17,40,7.20
2019,10,26,17,41,7.20
2019,10,26,17,42,7.20
2019,10,26,17,43,7.20
2019,10,26,17,44,7.10
2019,10,26,17,45,7.10
2019,10,26,17,46,7.10
2019,10,26,17,47,7.10
2019,10,26,17,48,7.10
2019,10,26,17,49,7.00
2019,10,26,17,50,7.00
2019,10,26,17,51,7.00
2019,10,26,17,52,6.90
2019,10,26,17,53,6.90